FENGYUN 1C DEB, 30928

Orbit data source: Space-Track

FENGYUN 1C DEB, 30928 is space debris in SSO originally from a launch on Mon, 10 May 1999 UTC launched from the Taiyaun Space Center, China (TSC). Fengyun 1C debris stems from the Chinese weather satellite Fengyun-1C, which was intentionally destroyed by a Chinese anti-satellite missile in 2007. This event dramatically increased the amount of space debris, with thousands of trackable fragments posing hazards to satellites and human spaceflight. The Fengyun 1C debris cloud has become a focal point in discussions about space sustainability and the need for international regulations to prevent the creation of new debris.

Loading next visibility...
Identifier
30928, 1999-025AZS
Orbit
SSO
Country
Flag of CNCN / PRC
Related business
Manufacturer
Unknown
Mission
Spacecraft
Bus & Motor
Unknown
Mass
Unknown
Launch date (UTC)
1999-05-10 (27 years ago)
Launch vehicle
Unknown
Launch site
Taiyaun Space Center, China (TSC)
Object type
Payload
Rocket body
Debris
Shape & HBR
Unknown shape, 0.1 m
Radar Cross Section
Small (<0.1 m²)

Expand to show TLE details & history
Last TLE update: 18 hours ago

TLE from 18 hours ago
0 FENGYUN 1C DEB
1 30928U 99025AZS 26062.69641150  .00001244  00000-0  17707-2 0  9990
2 30928  98.8752 145.1225 0455607 194.2610 322.8933 13.22441754914189
Epoch: 2026-03-03T16:42Z
TLE epoch observation values (Epoch: 2026-03-03T16:42:49.953Z)
Latitude
25.84098°
Longitude
-82.74322°
Altitude
909.956 km
Speed
7.53 km/s
True Right ascension
21h 57m 44s
True Declination
25° 42' 33"
Sunlit
Object was in daylight at epoch
Visualization orbit readout
Latitude
Unknown
Longitude
Unknown
Altitude
Unknown
Speed
Unknown
Apparent Right ascension
Unknown
Apparent Declination
Unknown
Sunlit
N/A
Visualization observer readout
Local Sidereal Time
14:02:43
Azimuth
Unknown
Elevation
Unknown
Doppler factor
Unknown
Orbital elements
Apogee altitude
1,516.719 km
Perigee altitude
828.676 km
Semi-major axis
7,550.835 km
Eccentricity
0.04556
Inclination
98.8752°
RAAN
145.1225°
Arg. of periapsis
194.261°
True anomaly
319.59581°
Mean anomaly
322.8933°
Eccentric anomaly
321.25971°
Mean motion
3.30789 °/min
Orbital period
108.83 mins
BSTAR
0.0017707
Loading maneuver chart data...
Computing Atmospheric mass density...
Loading historical data...
Loading historical data...
Loading historical data...
Loading historical data...
Loading historical data...
Loading historical data...
Loading historical data...

Documentation

Showing up to 5 results
|